User: anonymous   Login
Location: Unspecified
(0.0000°N, 0.0000°E)
Time: 01:04:52
(UTC+00:00)
Language:

STARLINK-11404 [DTC] - Orbit

View from above orbital plane
View from above orbital plane
View from above satellite
View from above satellite

Ground track
Ground track

The orbit is defined by the following mean orbital elements,

1 62019U          26145.04880083 +.00000000 +00000-0 +11215-2 0 00002
2 62019  53.1573  25.1772 0001104  43.7699 316.3407 15.69752029    02
Epoch (UTC): 25 May 2026 01:10:16
Eccentricity: 0.0001104
inclination: 53.1573°
perigee height: 359 km
apogee height: 360 km
right ascension of ascending node: 25.1772°
argument of perigee: 43.7699°
revolutions per day: 15.69752029
mean anomaly at epoch: 316.3407°

The dashed part of the orbit path shows where the satellite is in the earth's shadow,  

DLR